Wetbulb
54.89 54.63 54.07 53.91 53.30 52.86 52.37 52.23 52.77 51.74 52.14 52.64 53.11 53.49 53.01 52.24 52.17 51.98 51.77 52.04 52.90 53.55 54.73 57.08 59.72 57.06 51.40 44.30 43.77 53.89 57.24 56.42 50.89 48.05 44.10 41.15 37.57 35.50 32.68 32.49 34.80 31.76 33.57 36.96 37.85 38.16 37.36
55.10 54.21 53.88 53.45 52.80 52.32 52.35 52.16 52.29 51.84 52.07 52.16 52.44 52.35 52.16 52.14 52.04 52.15 52.01 51.99 52.77 52.99 54.34 56.20 57.37 54.44 48.39 39.30 50.29 54.16 51.55 49.39 47.90 45.77 43.30 42.67 39.08 38.59 34.67 33.07 31.84 33.68 35.47 35.58 37.07 36.86 37.37
55.06 54.50 54.37 53.64 52.99 52.26 52.25 51.97 51.53 51.41 51.40 51.55 51.88 51.97 51.98 51.61 51.95 52.19 52.13 52.86 53.63 54.15 54.48 55.66 57.12 52.55 45.93 44.59 52.87 53.11 51.90 48.46 47.88 46.21 42.75 44.27 42.87 39.33 36.69 33.02 37.07 35.77 31.37 33.18 34.34 35.50 34.88
54.29 54.50 53.76 53.07 52.92 52.14 51.97 51.62 51.28 51.05 51.12 50.79 50.95 51.24 51.16 51.66 51.55 51.48 51.82 53.24 54.06 53.67 54.30 55.53 55.69 51.13 41.63 50.10 49.44 50.87 49.02 46.83 47.95 47.65 45.73 45.55 44.70 40.34 36.58 36.32 33.68 30.68 29.31 24.88 31.56 34.87 36.23
54.03 54.17 53.46 52.92 52.94 52.69 52.44 51.83 51.37 51.12 50.92 50.53 50.57 50.58 50.98 51.13 50.79 51.27 52.14 54.11 55.84 54.76 55.01 56.44 50.81 47.75 39.22 50.61 44.70 46.19 47.91 44.98 45.73 45.84 45.95 47.34 43.12 36.43 35.73 26.41 21.68 25.22 19.42 23.19 27.81 35.41 34.68
54.15 54.21 54.02 53.82 53.31 52.45 52.50 52.04 51.76 51.55 50.93 50.56 49.99 50.03 50.71 50.60 50.78 51.76 51.95 55.69 55.71 54.73 53.33 52.05 49.89 42.73 43.82 41.62 45.86 46.20 47.32 47.45 44.09 43.14 41.63 39.80 34.59 27.55 27.69 21.25 12.65 19.05 19.88 24.80 25.05 31.26 33.39
54.23 54.65 54.70 54.70 54.61 52.89 52.30 52.26 51.77 50.98 50.76 49.97 50.22 50.34 50.18 51.11 50.58 51.64 49.48 48.90 44.84 43.40 46.75 43.02 42.62 41.90 43.05 46.52 47.29 44.32 46.96 45.32 43.52 38.93 32.09 34.03 25.21 19.62 25.56 28.21 26.91 25.56 24.48 24.19 28.77 33.36 31.40
54.78 55.27 55.39 55.39 55.19 54.34 52.04 52.05 51.45 51.10 50.33 49.84 49.91 50.14 50.09 50.54 51.21 50.64 48.43 43.03 43.63 45.33 37.86 44.68 44.46 44.00 45.80 46.12 39.71 42.74 46.72 38.68 36.72 30.88 32.98 27.99 20.83 30.19 32.65 31.68 29.48 27.64 25.20 26.06 29.92 33.66 33.89
55.49 55.90 56.03 55.64 55.24 54.39 51.77 50.90 51.56 50.97 50.13 49.82 50.17 49.65 49.72 50.29 49.85 48.52 45.34 45.43 49.05 47.84 37.00 40.08 43.61 42.49 43.50 44.04 39.47 39.53 42.90 40.47 35.90 31.89 30.93 26.51 30.08 34.70 32.68 30.06 28.02 26.28 24.10 25.79 26.48 33.54 35.96
55.89 55.85 55.33 54.74 54.47 54.30 52.69 50.03 51.12 50.45 50.24 49.85 49.42 49.55 50.44 51.26 45.71 46.77 43.92 48.20 49.32 48.08 32.58 33.50 37.90 41.15 43.12 43.62 38.86 45.27 44.64 41.17 37.54 31.64 33.87 29.60 34.04 32.37 30.44 29.27 29.20 24.89 31.25 30.80 30.75 32.58 28.19
55.81 54.21 53.95 53.44 53.17 52.67 51.86 51.49 51.28 50.54 50.36 49.53 49.68 49.84 50.41 48.67 43.98 42.76 45.81 49.14 49.29 45.59 18.16 36.13 38.13 45.77 43.28 39.77 39.96 41.45 46.60 43.31 36.08 35.76 32.78 27.94 31.05 31.02 30.31 29.35 32.41 28.88 35.22 33.38 33.83 33.09 31.48
54.72 53.89 53.52 53.06 52.94 52.81 52.52 51.80 50.75 50.38 50.04 49.71 50.34 50.57 49.04 45.91 46.19 47.76 48.78 48.97 45.53 26.17 16.66 33.83 37.26 35.80 37.28 39.46 39.64 42.32 42.01 43.39 41.42 35.69 35.82 31.95 36.32 34.41 33.05 35.15 35.04 36.26 32.43 33.59 33.60 31.10 18.02
54.34 54.01 53.05 52.97 52.42 52.29 52.14 51.36 50.65 50.32 50.05 50.49 50.29 50.21 47.62 46.82 41.61 47.70 47.63 41.89 25.57 22.59 34.42 30.32 32.71 35.21 35.80 35.46 35.86 38.33 36.05 34.87 32.18 20.93 21.75 29.45 31.90 35.24 36.39 31.79 35.77 34.16 32.21 20.91 18.17 15.94 19.08
53.83 53.87 52.99 52.59 52.89 52.52 51.83 51.38 50.99 50.63 50.52 50.23 49.37 47.75 46.61 47.28 46.52 45.29 40.77 31.50 20.78 30.49 31.52 35.83 34.34 36.21 33.28 36.23 35.98 36.17 35.44 33.05 35.37 33.55 30.23 20.37 20.19 33.32 36.88 34.22 31.84 32.52 34.88 27.50 20.12 16.69 24.45
53.06 53.40 53.49 52.57 52.48 52.15 51.62 51.18 50.80 50.35 49.85 50.30 47.65 41.46 41.80 44.13 46.22 42.18 34.85 26.19 27.61 31.46 33.99 32.73 35.87 31.21 32.20 35.95 35.63 34.26 34.01 33.63 35.97 35.10 29.15 28.15 23.12 35.63 37.35 38.09 37.20 33.65 32.16 37.85 31.31 29.38 27.19
53.23 53.04 53.26 53.60 53.54 52.89 51.96 51.05 50.30 49.82 49.81 50.48 39.78 38.88 39.90 45.03 44.40 38.89 31.79 32.11 31.86 36.29 36.34 35.64 28.65 31.40 27.67 31.82 33.43 33.47 31.50 35.93 35.81 37.71 38.56 34.37 27.93 34.00 37.15 39.35 38.09 35.94 38.39 30.29 29.71 22.64 22.46
53.75 53.34 53.14 53.05 53.03 53.36 53.14 53.25 53.37 52.95 51.82 50.11 39.36 35.45 41.10 44.85 42.38 36.52 29.28 31.20 35.10 39.40 38.43 34.67 30.93 30.04 29.76 30.20 31.48 31.33 30.91 35.15 37.71 39.21 38.51 36.94 33.81 30.89 34.30 33.00 31.53 32.68 31.30 32.66 31.32 28.94 25.30
53.57 53.29 52.54 52.56 52.76 52.18 51.89 52.12 52.48 52.89 51.38 44.21 36.86 31.13 42.11 43.41 34.17 31.41 30.71 34.40 39.83 37.83 40.18 37.82 35.59 33.76 31.58 32.09 31.97 31.35 31.03 34.44 39.07 39.03 34.47 36.87 33.39 29.22 29.79 35.33 35.25 34.36 31.88 30.25 22.53 23.22 25.44
53.45 53.32 53.12 52.91 53.29 53.12 52.44 51.68 51.93 52.22 50.45 39.24 33.89 33.58 41.15 40.60 28.35 26.93 33.88 35.34 37.47 37.07 36.64 36.32 35.18 36.50 35.65 32.79 29.69 32.56 34.07 38.33 39.71 37.89 33.88 34.98 27.66 19.34 23.46 28.23 32.29 30.51 32.34 32.13 30.39 26.86 23.80
52.15 53.00 52.95 52.96 53.28 53.25 52.98 52.35 52.18 52.39 51.59 39.92 33.88 30.00 35.87 36.48 34.34 30.62 31.71 32.68 34.54 38.85 36.94 37.67 36.21 36.48 34.28 32.47 34.14 31.39 32.86 37.79 39.25 38.70 43.42 38.79 29.92 26.05 19.87 25.56 29.28 28.72 30.86 30.30 27.98 20.39 24.44
50.98 52.20 52.92 52.71 52.89 53.14 52.90 52.63 52.05 52.07 51.80 40.37 34.25 30.80 33.23 27.44 32.20 32.01 32.53 33.55 33.61 33.73 37.17 37.56 34.82 35.41 33.42 29.59 30.72 30.13 33.34 34.37 37.01 41.05 37.04 34.95 27.55 25.51 28.55 29.85 29.94 29.90 30.04 29.09 27.93 27.33 22.88
50.30 50.94 52.73 52.55 52.46 52.47 52.52 52.31 52.08 51.50 50.44 40.04 34.78 33.50 33.51 31.58 32.57 32.23 34.36 33.61 34.50 35.20 34.90 34.22 33.80 35.37 34.99 31.15 31.21 29.66 32.41 31.22 30.65 33.91 32.70 33.84 26.05 27.65 23.97 30.55 29.85 28.55 30.10 29.41 30.74 30.50 28.90
49.44 49.80 50.97 52.14 51.87 51.77 51.81 51.96 52.06 51.41 46.96 38.81 38.02 37.63 35.65 32.99 31.23 30.58 31.80 34.01 35.28 36.03 36.25 36.82 35.42 34.23 32.73 34.59 35.71 36.31 36.00 35.18 34.02 31.46 31.91 30.95 27.25 22.65 20.92 26.58 27.64 24.37 27.68 29.05 30.58 31.80 31.10
48.73 49.33 49.67 50.47 50.98 51.23 51.34 51.82 51.90 51.56 45.18 38.92 37.03 36.37 32.64 29.98 32.14 33.53 35.36 35.69 34.91 35.52 34.11 36.84 36.01 34.01 36.26 39.08 38.07 35.42 33.49 34.40 33.83 33.79 33.90 30.51 27.57 24.90 20.91 22.95 13.46 26.80 30.45 31.39 30.48 32.52 33.38
47.85 48.93 49.08 49.36 49.95 50.89 51.04 51.16 51.41 51.36 47.66 37.99 36.73 36.50 32.65 29.02 31.68 33.80 34.83 34.42 35.02 35.10 34.17 36.09 37.03 38.00 38.13 35.77 31.64 28.81 27.87 29.46 31.04 33.21 32.39 32.77 29.13 23.26 18.93 17.38 24.22 26.33 29.50 29.99 29.47 29.43 33.74
48.04 47.87 49.05 49.27 49.72 50.03 50.55 50.89 50.70 50.80 49.42 38.48 36.26 37.23 36.08 31.98 30.23 34.38 33.86 33.61 32.37 29.94 33.12 35.59 38.97 39.40 37.20 33.57 29.19 23.70 21.61 24.17 25.07 27.03 32.24 32.19 30.87 26.55 23.27 19.14 17.56 25.26 31.02 34.09 31.74 23.76 32.35
49.01 47.63 47.96 48.89 49.10 49.36 49.65 50.44 50.11 49.75 49.48 39.78 36.60 37.42 36.64 32.04 32.32 33.54 33.03 33.07 34.61 31.77 31.73 32.46 35.29 35.61 35.94 30.63 28.66 24.81 22.25 25.91 22.96 22.81 23.57 25.53 25.10 24.24 24.31 21.22 25.38 29.67 33.01 33.13 21.74 24.35 33.09
50.05 47.95 47.34 47.98 48.69 48.84 49.03 49.85 49.87 49.04 49.65 41.13 37.52 37.67 37.20 32.00 32.24 35.02 35.97 33.83 33.92 33.61 32.52 34.26 33.52 33.58 32.86 29.55 28.42 26.34 24.41 25.37 22.85 25.57 24.95 24.60 21.72 21.82 22.50 20.03 18.24 32.70 31.80 27.51 30.43 30.90 33.35
51.15 48.80 47.47 47.06 47.95 48.51 48.52 48.86 49.67 48.60 49.00 43.25 35.59 38.10 38.93 35.75 35.15 35.66 36.24 36.11 35.70 35.84 34.80 33.35 33.41 32.94 34.47 30.59 29.17 28.11 27.25 24.28 23.62 22.18 24.96 24.17 27.24 24.11 26.02 25.65 31.05 32.38 32.17 33.03 32.95 33.30 33.23
MSLP
1019.29 1018.70 1018.10 1017.53 1017.16 1016.92 1016.64 1016.27 1015.94 1015.83 1015.57 1015.28 1015.37 1015.13 1015.22 1015.21 1015.14 1015.24 1015.30 1015.41 1015.38 1015.44 1015.22 1015.20 1014.87 1015.64 1016.22 1016.33 1016.24 1015.89 1015.73 1016.10 1016.29 1016.41 1016.94 1017.09 1017.61 1018.24 1018.80 1019.31 1019.47 1019.51 1019.53 1019.17 1018.89 1018.57 1018.31
1019.08 1018.54 1018.01 1017.54 1017.09 1016.89 1016.61 1016.31 1015.89 1015.66 1015.43 1015.11 1015.09 1015.07 1015.05 1015.05 1014.97 1015.05 1015.11 1015.11 1015.35 1015.35 1015.21 1015.19 1014.87 1015.75 1016.21 1016.32 1016.11 1016.04 1016.26 1016.48 1016.68 1016.89 1017.49 1017.52 1018.21 1018.67 1019.40 1019.78 1019.99 1020.31 1020.14 1019.60 1018.90 1018.51 1018.39
1018.68 1018.24 1017.75 1017.16 1016.98 1016.56 1016.28 1015.94 1015.72 1015.51 1015.25 1015.00 1014.87 1014.88 1014.83 1014.86 1014.80 1014.93 1014.97 1014.98 1014.99 1015.02 1015.16 1015.16 1014.92 1015.87 1016.00 1016.57 1016.29 1016.42 1016.54 1017.03 1017.00 1017.32 1017.96 1018.27 1018.51 1018.96 1019.79 1020.27 1020.58 1020.65 1020.78 1020.04 1018.92 1018.50 1018.40
1018.54 1017.84 1017.42 1016.95 1016.66 1016.25 1015.91 1015.42 1015.35 1015.23 1015.00 1014.94 1014.82 1014.68 1014.77 1014.84 1014.82 1014.76 1014.55 1014.40 1014.52 1014.55 1014.93 1015.24 1015.42 1015.71 1016.54 1016.66 1016.66 1016.92 1017.08 1017.52 1017.57 1017.88 1018.22 1018.44 1018.73 1019.56 1020.28 1020.88 1021.36 1021.73 1021.63 1021.32 1019.47 1018.83 1018.39
1018.40 1017.85 1017.22 1016.76 1016.25 1015.79 1015.75 1015.53 1015.13 1015.09 1014.98 1014.90 1014.77 1014.66 1014.60 1014.72 1014.76 1014.58 1014.00 1012.97 1012.88 1013.83 1014.54 1014.99 1015.88 1016.61 1017.10 1017.09 1017.23 1017.26 1017.44 1018.05 1018.23 1018.36 1018.43 1018.67 1019.26 1020.67 1021.23 1022.23 1022.87 1023.00 1022.80 1021.99 1020.61 1019.06 1018.59
1018.36 1017.73 1017.18 1016.57 1016.00 1015.60 1015.50 1015.33 1015.08 1015.15 1015.03 1014.89 1014.63 1014.72 1014.69 1014.69 1014.62 1014.56 1014.01 1012.32 1012.70 1014.09 1014.98 1015.74 1016.15 1016.34 1017.52 1017.38 1017.40 1017.69 1017.91 1018.14 1018.52 1018.82 1019.30 1019.74 1020.85 1021.76 1022.62 1023.35 1023.98 1023.65 1023.42 1022.48 1021.32 1019.52 1018.61
1018.26 1017.44 1016.70 1015.98 1015.29 1014.68 1015.03 1014.99 1015.13 1015.04 1015.04 1014.87 1014.75 1014.86 1014.91 1014.91 1014.83 1014.82 1014.69 1014.03 1014.33 1015.53 1015.70 1015.45 1015.75 1016.33 1016.97 1017.38 1017.54 1018.10 1018.27 1018.54 1018.84 1019.37 1020.24 1021.02 1022.09 1022.48 1022.80 1023.11 1023.38 1023.46 1023.44 1022.52 1020.42 1019.30 1018.87
1018.16 1017.13 1016.14 1015.21 1014.52 1014.16 1014.94 1014.91 1015.12 1015.08 1015.18 1015.02 1014.93 1015.08 1015.06 1015.03 1014.96 1014.65 1014.97 1015.01 1015.54 1015.62 1016.37 1016.84 1016.64 1017.11 1017.27 1017.39 1018.15 1018.51 1018.47 1019.07 1019.32 1020.03 1020.79 1021.61 1022.03 1021.86 1022.21 1022.64 1023.01 1023.36 1023.17 1021.66 1019.87 1018.43 1017.77
1017.89 1016.76 1015.72 1014.90 1014.22 1013.82 1014.69 1015.31 1015.45 1015.34 1015.35 1015.19 1015.35 1015.39 1015.23 1015.17 1015.23 1015.52 1015.26 1015.72 1015.90 1015.74 1016.95 1018.41 1017.64 1017.81 1017.72 1017.89 1018.47 1018.75 1018.87 1019.12 1019.47 1020.16 1020.68 1021.38 1021.39 1021.28 1021.84 1022.19 1022.56 1022.50 1022.31 1020.72 1019.37 1017.41 1016.30
1017.81 1016.74 1015.94 1015.34 1014.72 1014.24 1014.89 1015.59 1015.31 1015.40 1015.71 1015.69 1015.56 1015.52 1015.28 1015.03 1015.27 1015.69 1015.94 1016.07 1016.03 1014.97 1017.06 1019.26 1018.47 1018.03 1018.07 1018.18 1018.93 1018.97 1019.01 1019.46 1019.61 1020.24 1020.49 1020.91 1020.86 1021.11 1021.40 1021.54 1021.84 1021.63 1019.73 1019.32 1018.66 1017.64 1016.76
1018.20 1017.53 1016.86 1016.29 1015.77 1015.65 1015.68 1015.73 1015.89 1016.03 1016.36 1015.94 1015.74 1015.81 1015.56 1015.37 1015.92 1016.34 1016.67 1016.13 1016.10 1015.68 1017.82 1020.06 1018.95 1018.36 1018.39 1018.83 1019.34 1019.46 1019.39 1019.29 1019.94 1020.40 1020.87 1020.96 1020.81 1021.01 1021.08 1020.74 1020.52 1019.42 1018.67 1018.56 1018.00 1017.44 1017.15
1018.99 1018.43 1017.76 1016.88 1016.36 1016.28 1016.24 1016.36 1016.56 1016.72 1016.89 1016.56 1015.99 1015.69 1015.84 1016.23 1016.63 1017.10 1016.85 1016.84 1016.76 1017.28 1019.44 1019.97 1019.39 1019.02 1019.03 1019.19 1019.39 1019.46 1019.56 1019.92 1020.52 1020.70 1020.93 1020.76 1020.61 1020.71 1020.16 1019.45 1019.23 1018.17 1018.03 1017.51 1017.44 1017.36 1017.31
1019.94 1019.20 1018.72 1017.83 1017.02 1016.92 1017.02 1017.17 1017.23 1017.31 1017.34 1017.00 1016.70 1016.47 1016.47 1016.76 1017.54 1017.28 1017.22 1017.39 1017.79 1018.60 1020.60 1020.48 1019.92 1019.43 1019.16 1019.49 1019.80 1019.82 1020.19 1020.44 1020.74 1021.16 1021.05 1020.38 1020.11 1019.59 1019.41 1019.11 1018.10 1017.94 1017.57 1017.35 1017.24 1017.10 1016.73
1020.73 1020.10 1019.60 1019.09 1018.27 1017.94 1017.96 1017.95 1017.87 1017.75 1017.61 1017.55 1017.19 1016.99 1017.29 1017.37 1017.36 1017.20 1017.51 1017.76 1018.44 1019.73 1019.54 1019.62 1019.44 1019.45 1019.52 1019.60 1019.87 1020.05 1020.28 1020.40 1020.62 1020.97 1021.06 1020.89 1019.67 1018.76 1018.28 1018.04 1017.48 1017.22 1017.43 1017.77 1017.70 1016.92 1016.52
1021.37 1021.06 1020.41 1020.04 1019.53 1019.03 1018.77 1018.54 1018.15 1017.89 1017.76 1017.54 1017.53 1018.01 1017.81 1017.36 1017.16 1017.15 1017.48 1018.19 1019.54 1019.36 1019.20 1019.24 1019.48 1019.78 1019.75 1019.70 1019.90 1020.08 1020.14 1020.03 1019.93 1020.42 1020.93 1020.46 1019.20 1017.68 1017.20 1016.90 1016.88 1016.47 1016.65 1016.94 1016.94 1016.22 1015.83
1022.06 1021.77 1021.38 1020.79 1020.29 1019.66 1019.36 1019.02 1018.70 1018.24 1017.84 1017.64 1018.14 1018.12 1017.66 1017.04 1016.93 1017.25 1017.64 1018.96 1019.45 1019.15 1018.78 1018.91 1019.16 1019.52 1019.71 1019.79 1019.97 1020.17 1019.92 1019.44 1019.54 1019.68 1019.97 1019.94 1019.20 1017.47 1016.73 1016.42 1016.29 1016.43 1016.72 1016.73 1016.84 1016.44 1015.44
1022.48 1022.09 1021.76 1021.48 1021.08 1020.53 1019.90 1019.30 1018.79 1018.21 1017.81 1017.71 1018.34 1018.38 1017.25 1016.77 1016.75 1017.58 1019.01 1019.62 1019.27 1018.76 1018.52 1018.64 1018.60 1018.98 1019.25 1019.61 1019.83 1019.83 1019.48 1019.17 1019.09 1019.12 1019.45 1019.35 1019.41 1017.62 1016.88 1016.40 1016.23 1016.56 1016.51 1016.80 1016.98 1016.58 1016.30
1022.75 1022.55 1022.23 1021.91 1021.55 1021.07 1020.46 1019.77 1018.99 1018.55 1018.15 1018.24 1018.97 1019.31 1017.59 1017.02 1017.86 1019.53 1020.33 1019.87 1019.20 1018.70 1018.22 1018.07 1018.01 1018.06 1018.60 1018.88 1019.27 1019.24 1018.79 1018.49 1018.28 1018.54 1019.01 1018.92 1018.99 1018.57 1017.12 1016.05 1016.00 1016.14 1016.41 1016.65 1017.18 1016.64 1016.55
1023.04 1022.84 1022.51 1022.08 1021.73 1021.25 1020.63 1020.04 1019.30 1018.55 1018.51 1019.02 1020.32 1020.29 1018.49 1018.22 1020.12 1020.74 1020.17 1019.67 1019.11 1018.47 1018.11 1017.76 1017.75 1017.63 1017.94 1018.34 1018.70 1018.26 1018.10 1017.66 1017.90 1018.25 1018.35 1018.57 1018.96 1018.93 1017.42 1016.69 1016.11 1016.21 1016.30 1016.50 1016.59 1016.84 1016.90
1023.24 1022.96 1022.61 1022.15 1021.85 1021.51 1020.97 1020.28 1019.69 1019.12 1018.64 1019.40 1020.81 1021.25 1020.50 1020.43 1021.22 1021.06 1020.83 1020.09 1019.10 1018.26 1018.11 1017.92 1017.98 1017.57 1017.81 1018.05 1017.90 1017.85 1017.76 1017.64 1017.76 1017.94 1018.00 1018.32 1019.02 1019.30 1018.91 1017.97 1017.46 1016.84 1016.30 1016.23 1016.44 1016.54 1016.48
1023.53 1023.10 1022.75 1022.55 1022.03 1021.49 1021.11 1020.63 1020.05 1019.48 1018.83 1019.36 1021.32 1022.73 1022.61 1022.28 1021.67 1021.38 1020.95 1020.27 1019.60 1019.03 1018.45 1018.24 1018.26 1018.22 1018.17 1018.10 1018.13 1018.15 1018.00 1017.83 1017.76 1017.81 1018.15 1018.64 1019.15 1019.17 1018.55 1018.00 1017.61 1016.87 1016.37 1016.10 1016.15 1015.92 1016.01
1023.80 1023.38 1022.91 1022.63 1022.41 1021.88 1021.47 1020.96 1020.36 1019.73 1019.60 1020.15 1021.31 1022.08 1022.53 1022.17 1021.85 1021.33 1020.80 1020.46 1020.04 1019.50 1019.21 1018.75 1018.76 1018.66 1018.34 1018.29 1018.44 1018.38 1018.36 1018.24 1018.10 1018.05 1018.35 1018.85 1019.29 1019.42 1018.81 1017.55 1017.35 1016.76 1015.94 1015.71 1015.66 1015.47 1015.44
1023.83 1023.54 1023.12 1022.80 1022.47 1022.28 1021.79 1021.23 1020.60 1019.91 1019.68 1020.93 1021.49 1021.33 1021.39 1022.27 1021.89 1021.44 1021.08 1020.45 1019.99 1019.59 1019.24 1019.12 1019.07 1018.84 1018.71 1018.69 1018.53 1018.38 1018.41 1018.50 1018.59 1018.75 1018.72 1019.14 1019.59 1020.10 1019.32 1018.19 1017.46 1016.47 1014.87 1014.94 1014.88 1014.79 1014.84
1023.73 1023.60 1023.32 1023.02 1022.69 1022.38 1022.04 1021.50 1021.06 1020.55 1020.41 1021.17 1021.78 1021.75 1021.94 1022.21 1021.72 1021.31 1020.81 1020.43 1020.13 1019.88 1019.67 1019.07 1018.92 1018.74 1018.69 1018.38 1018.18 1018.30 1018.40 1018.27 1018.33 1018.29 1018.57 1019.09 1019.89 1020.36 1020.03 1018.67 1017.35 1015.04 1014.28 1014.28 1014.50 1014.40 1014.41
1023.33 1023.32 1023.20 1023.08 1022.80 1022.49 1022.18 1021.77 1021.26 1020.91 1020.75 1021.24 1021.79 1022.08 1022.20 1022.20 1021.77 1021.30 1020.88 1020.63 1020.31 1020.07 1019.77 1019.23 1018.74 1018.60 1018.55 1018.53 1018.54 1018.47 1018.38 1018.32 1018.02 1017.96 1018.39 1018.91 1019.70 1020.33 1020.24 1019.39 1016.55 1014.57 1014.28 1014.33 1014.41 1013.90 1013.82
1023.34 1023.13 1023.20 1022.95 1022.72 1022.57 1022.21 1021.96 1021.60 1021.27 1021.07 1021.54 1021.93 1021.79 1022.09 1022.48 1021.96 1021.31 1020.96 1020.60 1020.79 1020.75 1020.42 1019.55 1018.97 1018.73 1018.78 1019.29 1019.60 1019.99 1019.88 1019.32 1018.89 1018.26 1018.18 1018.85 1019.33 1020.17 1020.31 1019.51 1017.07 1014.72 1014.05 1013.92 1014.11 1014.04 1013.53
1023.08 1023.09 1023.04 1023.00 1022.72 1022.54 1022.29 1021.89 1021.81 1021.54 1021.27 1021.51 1021.74 1021.91 1022.00 1022.34 1021.52 1021.19 1021.02 1020.73 1020.62 1020.84 1020.94 1020.40 1019.93 1019.58 1019.45 1020.04 1020.36 1020.62 1020.38 1019.80 1019.77 1019.36 1018.97 1019.16 1019.54 1019.84 1019.62 1018.96 1016.26 1014.42 1014.13 1014.15 1014.47 1014.50 1013.75
1022.66 1022.82 1022.81 1022.91 1022.72 1022.44 1022.32 1022.04 1021.75 1021.63 1021.37 1021.48 1021.67 1021.83 1022.04 1022.30 1021.47 1021.03 1020.87 1020.70 1020.70 1020.65 1020.47 1020.19 1020.30 1020.27 1020.54 1020.96 1021.33 1021.18 1020.96 1020.10 1019.92 1019.04 1018.48 1018.78 1019.23 1019.36 1019.00 1018.20 1016.16 1014.33 1014.60 1014.56 1013.78 1013.60 1013.71
1022.30 1022.38 1022.55 1022.59 1022.63 1022.35 1022.16 1021.98 1021.78 1021.56 1021.38 1021.33 1021.87 1021.79 1021.86 1022.20 1021.61 1021.14 1020.56 1020.17 1020.23 1020.19 1020.37 1020.66 1020.64 1020.61 1020.68 1021.24 1021.72 1021.65 1021.23 1020.68 1020.14 1019.63 1018.36 1018.34 1017.27 1017.35 1017.40 1015.72 1014.32 1014.10 1013.76 1013.45 1013.58 1013.73 1013.86
Wind_Speed
22 22 23 22 16 12 10 8 10 9 11 11 13 12 8 5 6 6 7 8 10 12 12 7 16 17 6 3 2 4 9 10 6 5 5 4 6 3 4 2 4 0 4 6 7 8 8
21 20 20 17 17 16 13 12 11 10 12 12 11 10 8 6 6 9 10 9 9 12 12 10 15 14 2 4 1 6 8 6 5 6 6 6 4 3 4 2 2 3 5 8 6 9 6
21 21 21 21 16 14 12 11 8 8 8 10 11 10 9 6 8 11 12 13 13 10 12 12 21 6 4 4 5 7 6 3 2 5 5 4 4 7 1 2 5 4 7 8 7 4 5
24 23 20 17 15 13 11 8 8 8 8 7 9 11 7 8 9 12 14 17 17 15 15 12 16 3 5 4 5 6 6 5 7 8 7 5 7 6 4 1 7 4 2 5 5 1 4
25 23 20 18 16 14 13 11 8 8 7 6 7 7 7 7 9 13 17 24 14 17 14 13 8 3 7 3 4 3 4 5 5 4 6 5 5 4 5 5 5 5 3 4 9 4 4
25 22 22 20 18 14 16 11 10 10 8 7 8 6 7 9 10 14 18 13 18 14 11 7 6 7 1 5 4 4 3 6 5 5 4 6 6 4 4 5 3 3 4 5 9 5 4
25 26 25 24 22 10 13 10 9 7 8 6 7 7 7 10 11 12 4 4 8 6 5 6 6 7 12 6 4 4 3 4 3 4 4 4 6 2 6 6 3 1 5 13 16 13 9
28 29 29 27 25 14 7 11 8 9 6 5 6 8 9 8 14 18 4 3 4 3 16 13 15 14 7 5 6 4 3 3 2 2 4 5 1 6 2 4 5 6 10 14 14 11 8
31 31 29 27 24 14 3 5 8 8 5 5 10 10 8 10 6 9 5 6 3 3 9 5 5 9 2 6 4 3 3 0 0 0 2 4 4 3 5 4 7 7 9 9 12 9 11
32 29 26 25 24 19 12 6 7 6 6 8 8 11 10 12 6 2 3 3 3 4 7 6 6 5 4 2 5 2 1 1 1 2 2 4 3 3 4 5 7 7 10 16 12 11 5
29 28 25 22 21 19 13 9 11 8 11 9 12 13 11 6 4 4 2 5 4 2 8 2 3 2 1 4 7 2 2 2 2 2 6 6 2 2 4 7 7 11 4 6 11 8 6
28 26 25 22 16 16 16 14 12 11 12 14 16 16 9 5 4 4 1 3 4 7 6 3 2 1 3 3 2 2 3 5 0 3 4 8 1 4 7 4 9 10 7 3 0 1 2
26 24 25 25 22 19 19 16 15 15 12 15 15 18 9 3 2 4 0 1 6 7 3 1 3 2 2 3 2 0 2 0 1 4 5 5 4 4 4 5 3 4 4 5 6 5 4
25 22 22 23 23 21 19 17 15 14 12 11 11 9 6 5 4 3 2 4 10 3 5 3 3 4 3 2 2 3 2 1 1 3 3 2 7 5 6 6 3 3 1 1 6 3 4
22 22 19 18 19 19 16 13 11 9 7 9 6 3 3 4 4 1 5 8 3 2 4 6 5 4 2 0 1 1 2 2 5 8 3 2 7 5 5 4 2 1 2 2 4 5 3
22 20 19 17 15 13 11 9 6 6 6 11 2 2 3 5 3 4 6 8 3 1 5 3 4 3 4 2 2 2 4 2 1 8 3 2 6 3 5 1 3 2 3 3 1 5 5
20 20 19 18 18 17 12 10 11 11 10 7 4 4 4 8 3 7 7 5 4 1 2 4 3 4 3 5 5 3 3 3 4 3 6 1 1 7 3 2 2 3 3 2 2 2 3
18 18 19 20 19 18 19 18 14 15 8 7 3 5 5 6 7 3 4 4 3 2 3 2 2 3 6 5 5 4 5 5 8 7 5 5 1 5 7 3 1 3 3 2 3 4 1
17 17 18 18 18 19 18 18 17 12 10 2 4 2 4 3 5 5 4 3 1 5 4 1 1 0 2 5 3 4 3 2 7 5 4 3 1 5 10 7 5 2 2 3 4 2 0
15 16 16 18 18 19 20 20 18 13 7 5 4 5 6 6 1 3 5 5 5 4 2 3 3 2 1 3 2 2 1 2 7 5 4 3 2 5 7 7 2 6 8 4 2 3 2
13 14 13 16 19 19 20 21 21 19 3 5 4 1 3 3 5 4 3 3 3 6 5 6 2 3 2 1 1 1 2 4 3 2 3 3 3 4 7 10 5 6 8 7 3 3 2
12 12 14 13 16 18 18 19 20 19 7 5 5 4 2 1 2 4 4 5 6 5 5 5 3 4 4 1 1 2 1 0 1 2 3 1 4 2 7 3 3 6 8 6 5 2 1
9 10 13 13 14 16 17 16 18 19 7 3 2 2 5 3 3 2 2 3 4 2 1 1 3 3 4 3 3 4 4 4 4 3 1 0 1 3 6 4 7 8 7 6 3 4 4
8 9 10 12 13 14 16 16 16 17 8 3 2 2 4 3 2 2 2 1 2 2 3 3 0 1 2 5 5 2 4 7 6 7 6 2 1 2 5 5 3 5 1 2 5 6 5
5 7 8 9 10 12 14 15 15 15 11 4 1 2 3 1 1 1 2 1 3 5 2 3 2 3 2 5 4 5 5 4 1 4 6 5 3 2 0 2 9 3 4 5 5 7 8
7 7 7 8 9 9 11 13 14 13 11 4 1 3 3 4 5 1 2 2 2 2 6 4 4 3 3 3 4 2 3 3 5 8 4 5 3 4 0 0 6 4 1 2 3 6 4
8 7 7 7 8 9 9 10 12 12 10 3 1 1 3 2 4 4 4 4 4 2 2 4 5 3 3 2 1 3 4 3 3 3 2 2 1 5 4 4 9 5 3 2 3 6 4
10 8 7 7 7 8 9 9 9 10 10 3 2 1 3 2 5 6 4 5 2 2 4 3 3 2 3 1 1 2 3 4 1 5 5 6 4 5 2 3 8 5 3 6 6 1 3
12 10 8 6 6 6 7 8 8 9 9 3 1 1 1 2 4 2 4 3 2 3 5 1 3 2 3 3 1 1 3 1 3 5 1 4 8 5 10 8 5 7 6 4 4 4 5
Wind_Direction
353 350 346 344 1 355 345 324 345 333 307 314 300 292 305 290 298 308 306 295 300 304 301 291 160 142 158 94 167 242 132 107 66 63 60 82 61 76 103 62 336 199 337 327 310 301 285
344 348 344 355 356 353 337 319 317 304 308 321 321 324 310 308 308 305 301 287 273 273 278 268 145 126 235 119 251 105 100 76 69 64 53 53 86 93 84 73 64 319 302 293 288 279 269
343 345 342 342 345 338 334 328 330 327 318 320 327 324 324 314 315 310 304 292 279 255 266 272 148 194 104 93 123 104 86 57 52 88 80 41 80 71 80 32 349 337 333 325 269 276 268
345 347 347 344 343 333 323 352 344 324 332 330 337 330 333 326 326 316 303 288 281 241 249 244 160 311 74 7 103 86 82 47 61 73 94 97 82 90 61 21 16 19 46 343 298 309 259
343 346 339 336 329 329 328 342 353 346 360 346 338 347 336 347 336 328 328 291 236 213 209 176 114 241 115 142 96 90 95 104 91 63 58 77 63 76 36 63 12 11 287 270 305 240 233
342 340 329 324 319 327 325 337 352 2 6 12 3 4 3 3 350 28 342 79 114 123 128 127 139 111 267 162 111 84 73 99 87 71 42 49 50 69 40 66 231 273 310 275 251 275 225
342 335 329 324 319 300 308 331 353 22 16 38 32 38 39 44 44 44 2 113 107 82 32 43 109 84 132 114 79 58 105 77 72 53 65 26 61 173 222 198 216 252 253 256 270 275 290
340 333 331 328 329 339 310 1 20 45 37 49 45 50 38 88 65 55 352 64 41 11 64 31 93 81 98 112 100 52 86 74 75 70 116 28 236 224 201 213 226 237 262 276 282 259 247
344 342 343 349 358 12 101 30 19 66 56 42 50 44 39 135 112 86 8 42 27 297 80 45 26 98 57 94 94 113 119 176 143 130 193 164 247 147 184 254 249 239 233 258 247 300 257
351 359 15 17 19 35 101 61 82 103 78 56 55 29 36 157 47 30 20 336 346 355 83 21 12 26 33 94 72 79 57 355 355 330 319 237 268 236 279 265 175 267 223 241 268 313 317
9 16 22 28 31 50 72 63 74 76 72 49 30 28 40 51 113 45 280 339 359 14 83 58 11 313 351 75 147 43 20 353 4 14 71 267 299 310 269 225 161 239 211 251 284 297 306
20 22 17 22 33 44 48 62 76 67 55 44 33 30 40 40 53 50 151 6 7 44 68 90 33 73 91 55 40 110 52 55 21 346 249 242 174 216 224 263 207 262 305 264 11 305 9
22 24 27 33 55 61 63 64 75 69 60 59 47 44 49 20 28 330 130 83 48 59 206 103 131 136 38 97 51 72 148 143 332 11 343 310 215 250 197 286 213 226 294 333 353 4 239
20 25 36 42 58 66 69 64 69 71 66 55 49 39 12 54 335 335 70 58 64 56 68 86 104 93 86 173 113 188 98 284 275 176 289 7 333 196 183 215 259 284 59 324 305 293 295
24 26 32 39 50 60 63 72 82 81 65 9 51 360 18 307 334 83 78 58 82 88 127 122 101 73 358 172 131 132 216 266 183 182 216 311 275 275 200 220 193 326 340 167 273 258 252
31 30 23 22 28 43 43 38 19 342 339 2 61 45 282 310 343 70 76 88 103 244 111 80 109 167 172 178 129 177 190 199 224 187 191 282 290 255 280 247 237 179 334 343 349 312 307
27 26 22 17 6 356 3 4 354 335 304 4 47 37 267 330 60 44 65 66 74 257 161 155 187 145 169 180 199 222 236 255 217 178 176 252 171 292 343 184 323 21 325 264 302 217 303
18 21 20 14 9 11 355 347 348 346 349 36 62 38 315 347 55 41 38 345 332 30 238 207 193 128 164 167 190 233 237 237 183 151 190 213 204 276 249 254 272 206 217 204 136 290 280
13 14 11 10 8 9 10 357 343 353 23 84 63 287 317 47 67 356 327 14 304 14 8 24 68 78 166 181 199 205 220 236 165 169 216 179 312 341 348 360 9 351 248 231 233 41 310
11 11 5 1 5 5 6 8 359 347 49 80 78 27 340 43 64 70 12 355 3 347 70 25 11 10 38 49 355 230 307 207 186 211 202 143 205 178 196 227 226 299 309 321 220 109 196
358 6 4 2 357 358 1 3 3 360 96 96 36 176 176 343 342 5 3 326 358 2 354 24 58 42 262 245 15 279 290 336 188 281 142 148 254 187 250 249 249 250 270 320 331 261 155
355 357 4 10 1 355 356 359 1 360 346 65 120 133 19 192 294 355 4 358 6 335 11 349 49 331 355 276 252 280 272 324 253 333 194 190 277 348 288 270 253 269 261 270 251 242 150
345 353 356 7 7 358 354 356 1 5 33 71 333 10 113 307 359 81 286 322 340 321 201 71 319 338 354 324 254 240 228 254 246 323 296 114 61 36 271 351 322 301 219 201 235 231 180
329 342 352 356 359 3 359 358 4 12 57 128 192 107 77 218 142 200 302 287 331 323 274 293 352 182 246 296 269 226 234 246 224 244 202 179 122 134 268 351 342 243 275 209 225 243 225
306 318 338 347 353 359 2 1 5 12 30 85 138 105 105 275 277 265 202 278 318 308 277 267 259 230 320 7 13 355 339 348 275 220 190 178 124 303 112 249 286 301 198 185 181 282 193
279 302 318 334 345 352 0 358 1 5 24 82 70 148 113 117 251 319 176 191 210 288 325 278 321 310 43 65 53 19 288 312 324 335 108 111 106 139 152 188 257 252 217 152 140 286 202
259 278 300 321 335 344 352 0 357 1 15 99 221 155 94 141 238 163 201 191 141 127 215 297 315 342 22 50 128 187 259 209 277 284 245 301 315 206 215 248 283 239 180 173 91 244 170
245 257 277 299 322 336 338 349 358 357 7 92 263 180 124 194 267 185 203 176 153 170 165 227 38 344 26 50 178 252 211 248 279 231 197 192 173 221 154 225 281 156 84 172 219 274 192
239 243 253 271 291 316 330 332 346 349 353 83 342 332 104 164 246 260 241 219 212 197 149 234 172 195 183 104 245 19 274 280 195 263 182 258 195 190 183 218 236 210 216 223 183 186 212